Flag for Australia Weather past 2 weeks in Bairnsdale, Victoria, Australia

Now
43 °F

Low clouds.


Feels Like: 42 °F
Forecast: 33 / 55 °F
Wind: 3 mph from North

Location: Bairnsdale Airport

Current Time: Jul 8, 2015 at 1:58:51 AM

Latest Report: Jul 8, 2015 at 12:00 AM


Visibility: 0 mi

Pressure: 30.32 "Hg

Humidity: 100%

Dew point: 43 °F

Location of BairnsdaleLocation

Historic Weather in Bairnsdale — Graph

°F

Bairnsdale temperature yesterday

Maximum temperature yesterday: 54 °F (at 2:00 PM)
Minimum temperature yesterday: 46 °F (at 11:00 PM)
Average temperature yesterday: 48 °F

Past Weeks' High & Low Weather Summary

 TemperatureHumidityPressure
High61 °F (Jun 26, 2:00 PM)100% (Jun 25, 6:00 AM)30.53 "Hg (Jun 25, 6:00 AM)
Low37 °F (Jul 4, 5:00 AM)55% (Jul 5, 2:00 PM)29.95 "Hg (Jul 6, 2:00 PM)
Average48 °F81%30.26 "Hg
* Reported Midnight between Jun 22 and Jun 23 — Midnight between Jul 7 and Jul 8, Bairnsdale, Weather by CustomWeather, © 2015

Note: Actual official high and low records may vary slightly from our data, if they occured in-between our weather recording intervals... More about our weather records

Advertising

Bairnsdale weather history for previous 24 hours

 ConditionsComfort  
Time TempWeatherWind HumidityBarometerVisibility
12:00 AM
Wed, Jul 8
43 °FLow clouds.3 mph100%30.32 "Hg0 mi
11:00 PM
Tue, Jul 7
46 °FCool.5 mph100%30.32 "HgN/A
9:00 PM47 °FOvercast.2 mph100%30.32 "HgN/A
8:00 PM46 °FCool.1 mph100%30.30 "HgN/A
6:00 PM48 °FOvercast.No wind96%30.28 "HgN/A
5:00 PM51 °FCool.2 mph83%30.26 "HgN/A
3:00 PM52 °FOvercast.9 mph80%30.23 "HgN/A
2:00 PM54 °FCool.5 mph82%30.22 "HgN/A
12:00 PM49 °FLow clouds.3 mph100%30.23 "Hg4 mi
11:00 AM49 °FCool.3 mph100%30.24 "HgN/A
9:00 AM47 °FOvercast.8 mph100%30.20 "Hg6 mi
8:00 AM47 °FCool.3 mph100%30.19 "HgN/A
6:00 AM46 °FLow clouds.3 mph100%30.14 "Hg2 mi
5:00 AM47 °FCool.5 mph100%30.12 "HgN/A
3:00 AM47 °FFog.5 mph100%30.11 "Hg4 mi
2:00 AM47 °FCool.5 mph100%30.09 "HgN/A
Weather by CustomWeather, © 2015

See weather overviewHow to use our weather pages